Regional Weather Roundup
Issued by NWS

Home | Current Version | Previous Version | Text Only | Print | Product List | Glossary On
Versions: 1 2 3 4 5 6 7 8 9 10 11 12 13 14 15 16 17 18 19 20 21 22 23 24 25 26 27 28 29 30 31 32 33 34 35 36 37 38 39 40 41 42 43 44 45 46 47 48 49 50
000
ASUS44 KFWD 181415
RWRTX
NORTH TEXAS HOURLY WEATHER ROUNDUP
NATIONAL WEATHER SERVICE FORT WORTH TX
900 AM CDT FRI APR 18 2014

NOTE: "FAIR" INDICATES FEW OR NO CLOUDS BELOW 12,000 FEET WITH NO
SIGNIFICANT WEATHER AND/OR OBSTRUCTIONS TO VISIBILITY.

TXZ118-119-181500-
DALLAS/FORT WORTH METROPLEX

CITY           SKY/WX    TMP DP  RH WIND       PRES   REMARKS
DFW AIRPORT    PTSUNNY   60  53  77 N6        30.23S
DALLAS LOVE    PTSUNNY   60  53  77 CALM      30.23S
FTW MEACHAM    PTSUNNY   60  55  83 NE8       30.23S HAZE
DAL-EXECUTIVE  CLOUDY    61  51  70 NE6       30.23R
FTW-ALLIANCE   PTSUNNY   57  53  86 N6        30.24R FOG
FTW-NAS-JRB    CLOUDY    60  52  74 N3        30.28S
FTW-SPINKS     CLOUDY    57  55  94 NE8       30.25R FOG
ARLINGTON      CLOUDY    60  53  77 NE3       30.23S
GRAND PRAIRIE  PTSUNNY   59  52  77 NE7       30.26S
ADDISON        CLOUDY    59  50  72 NE7       30.24R
LANCASTER      CLOUDY    58  50  76 NE5       30.25R
$$

TXZ091>094-102>105-117-120-121-131>134-181500-
NORTH CENTRAL TEXAS

CITY           SKY/WX    TMP DP  RH WIND       PRES   REMARKS
SHRMAN/DENISON SUNNY     56  47  74 NE5       30.26S
GAINESVILLE    CLOUDY    53  46  79 NE7       30.27S
BOWIE          PTSUNNY   58  51  78 NE6       30.24S
BRIDGEPORT     CLOUDY    57  56  96 E5        30.26S FOG
DECATUR        CLOUDY    55  53  94 NE7       30.24S
DENTON         CLOUDY    56  52  86 NE6       30.25R
MCKINNEY       CLOUDY    59  51  75 NE3       30.24S
GREENVILLE     SUNNY     59  46  63 NE3       30.24S
ROCKWALL       CLOUDY    58  50  74 N6        30.23R
TERRELL        CLOUDY    59  52  77 NE3       30.24R
WAXAHACHIE     CLOUDY    58  50  74 NE8       30.24R
CLEBURNE       SUNNY     57  57 100 NE7       30.25S FOG
GRANBURY       FOG       55  54  94 CALM      30.25S VSB 1/4
$$

TXZ083>090-098>101-113>116-127>130-139>142-154-155-181500-
WESTERN NORTH TEXAS

CITY           SKY/WX    TMP DP  RH WIND       PRES   REMARKS
WICHITA FALLS  PTSUNNY   51  45  79 NE8       30.25S HAZE
WF-KICKAPOO    CLOUDY    53  48  83 NE8       30.26S
VERNON         CLOUDY    51  46  80 E5        30.26R
ABILENE        CLOUDY    51  49  92 CALM      30.25R FOG
ABILENE-DYESS  PTSUNNY   51  50  95 VRB6      30.25R
BRECKENRIDGE   CLOUDY    56  56  98 CALM      30.24R FOG
GRAHAM         CLOUDY    57  53  86 CALM      30.23S
MINERAL WELLS  CLOUDY    55  53  93 CALM      30.23R FOG
STEPHENVILLE   CLOUDY    55  53  94 NE7       30.26R
COMANCHE       PTSUNNY   57  55  94 CALM      30.23R FOG
BROWNWOOD      CLOUDY    59  55  88 CALM      30.24R
COLEMAN        CLOUDY    55  52  87 N6        30.25R FOG
$$

TXZ143>147-156>162-174-175-181500-
CENTRAL TEXAS

CITY           SKY/WX    TMP DP  RH WIND       PRES   REMARKS
WACO           SUNNY     60  53  77 NE8       30.22R
WACO-TSTC      MOSUNNY   57  54  88 N5        30.22S
WACO-MCGREGOR  MOSUNNY   57  52  82 NE7       30.23S
HILLSBORO      PTSUNNY   59  50  70 NE9       30.22S
CORSICANA      CLOUDY    60  51  72 E5        30.23S
MEXIA          CLOUDY    58  52  81 NE5       30.21S
HEARNE         MOSUNNY   62  57  85 CALM      30.21R
CAMERON        SUNNY     62  58  87 CALM      30.20S
TEMPLE         SUNNY     61  54  77 N6        30.24S
KILLEEN        MOSUNNY   61  57  88 NW5       30.20S
KILLEEN-SKYLRK SUNNY     61  54  77 N7        30.19S
FORT HOOD      MOSUNNY   63  55  77 N6        30.21R
GATESVILLE     SUNNY     61  55  82 NE5       30.24R
HAMILTON       PTSUNNY   59  58  94 CALM      30.22S
LAMPASAS       CLOUDY    59  56  91 CALM      30.21R
$$

TXZ095>097-106>112-122>126-135>138-148>153-164>167-181500-
EAST TEXAS

CITY           SKY/WX    TMP DP  RH WIND       PRES   REMARKS
PARIS          SUNNY     57  48  72 NE5       30.25S
SULPHUR SPRNGS SUNNY     59  48  68 E6        30.26R
CLARKSVILLE    SUNNY     59  48  68 CALM      30.25R
MOUNT PLEASANT SUNNY     58  50  75 CALM      30.25S
GILMER         SUNNY     61  52  72 N5        30.25R
MINEOLA        SUNNY     59  52  77 CALM      30.24S
TYLER          MOSUNNY   60  50  69 N3        30.22S
LONGVIEW       MOSUNNY   60  52  74 N5        30.21S
MARSHALL       MOSUNNY   59  51  73 NE5       30.24S
ATHENS         CLOUDY    61  50  67 NE3       30.22R
PALESTINE      MOSUNNY   62  51  66 NE6       30.23S
JACKSONVILLE   MOSUNNY   58  49  72 NE3       30.23S
HENDERSON      MOSUNNY   62  49  63 N6        30.22F
NACOGDOCHES    PTSUNNY   59  52  77 N5        30.22R
LUFKIN         PTSUNNY   64  53  67 NE8       30.20S
$$

SUPPLEMENTAL OBSERVATIONS (CENTRAL)

CITY           SKY/WX    TMP DP  RH WIND       PRES   REMARKS
LAKE TEXOMA      N/A     52  46  82 NW1         N/A
CADDO GRASSLND   N/A     57  50  77 N2          N/A
PAT MAYSE LAKE   N/A     55  50  82 NW3         N/A
GREENVILLE       N/A     61  50  67 N5          N/A
CEDAR HILL       N/A     61  54  77 NE3         N/A
PALESTINE        N/A     63  54  72 NE5         N/A
LAKE LIMESTONE   N/A     63  54  72 NE6         N/A
MCGREGOR         N/A     61  55  82 NE9         N/A
TEMPLE           N/A     63  55  77 NE9         N/A
$$

SUPPLEMENTAL OBSERVATIONS (WEST)

CITY           SKY/WX    TMP DP  RH WIND       PRES   REMARKS
MILLERS CREEK    N/A     54  52  94 NE3         N/A
POSSUM KINGDOM   N/A     57  54  88 E2          N/A
GRANBURY         N/A     55  54  94 CALM        N/A
COMANCHE         N/A     61  55  82 NW1         N/A
HAMBY            N/A     52  46  82 W2          N/A
IVIE RESERVOIR   N/A     57  52  82 NE8         N/A
COLORADO BEND    N/A     57  55  94 CALM        N/A
$$

SUPPLEMENTAL OBSERVATIONS (EAST)

CITY           SKY/WX    TMP DP  RH WIND       PRES   REMARKS
CLARKSVILLE      N/A     61  50  67 NE3         N/A
TEXARKANA        N/A     64  52  63 NE3         N/A
LINDEN           N/A     63  52  67 NE2         N/A
CADDO LAKE       N/A     63  54  72 NE3         N/A
GILMER           N/A     63  52  67 NE3         N/A
HENDERSON        N/A     63  50  63 N8          N/A
LUFKIN           N/A     63  54  72 MISG        N/A
N SABINE NF      N/A     57  52  82 MISG        N/A
S SABINE NF      N/A     61  57  88 NW2         N/A
$$

SUPPLEMENTAL OBSERVATIONS ARE A COLLECTION OF AUTOMATED INSTRUMENTS
THAT ARE MAINTAINED BY A VARIETY OF FEDERAL AND STATE AGENCIES.
CERTAIN ELEMENTS...SUCH AS HUMIDITY VALUES AND SUSTAINED WIND
SPEEDS...MAY BE APPROXIMATED.




USA.gov is the U.S. government's official web portal to all federal, state and local government web resources and services.